sat.trackr.live / text

‹ back to catalog

STARLINK-3057

NORAD 49139 · 2021-082K

PAYLOAD ACTIVE UNKNOWN

§ Identity

Operator
Country
US
Launch date
2021-09-14
Launch site
AFWTR
Launch vehicle
Mass (kg)
RCS (m²)

Purposes: comms

External: N2YO · Heavens-Above · Gunter

§ Orbital elements

Epoch: 2026-05-25T04:29:20.666400Z

Period
96.11 min
Inclination
70.0004°
Eccentricity
0.0002710
Mean motion
14.98327698 rev/d
Perigee alt
570.2 km
Apogee alt
573.9 km
Semi-major
6,950.2 km
B*
5.5356e-5
RAAN
61.5682°
Arg perigee
263.7373°
Mean anomaly
96.3477°
Rev number
25,842

§ Raw data

STARLINK-30571 49139U 21082K   26145.18704475  .00000568  00000+0  55356-4 0  99992 49139  70.0004  61.5682 0002710 263.7373  96.3477 14.98327698258422

JSON: /api/v1/satellites/49139 · /tle

For live sub-satellite position, see the globe view (requires WebGL).

§ Visibility from observer

Set your observer location to see the next 7 days of passes ≥ 10°. The values pass through the URL so the page stays shareable.

No JS? Fill the form by hand. The geolocation button needs JavaScript.